When you browse on this site, cookies collect data to enhance your experience and personalize the content and advertising you see.
Visit our Privacy Policy to learn more. By continuing to use the site, you agree to this use of cookies and data.
  • In Austria
  • List of Countries
  • For 7 days
  • Water Temperature
  • Weather Map
  • News
  • Weather Widgets
  • user-avatar
    Login

    Hourly Weather Maleshev

    Today, 14 October, Monday

    Time Temperature Precipitation Wind Pressure Humidity
    00:00 +13°C° 0 mm 2 mps 753 mmHg 87%
    01:00 +13°C° 0 mm 2 mps 753 mmHg 88%
    02:00 +13°C° 0 mm 2 mps 753 mmHg 90%
    03:00 +13°C° 0 mm 2 mps 753 mmHg 90%
    04:00 +12°C° 0 mm 2 mps 753 mmHg 91%
    05:00 +12°C° 0 mm 2 mps 753 mmHg 92%
    06:00 +12°C° 0 mm 2 mps 753 mmHg 89%
    07:00 +12°C° 0 mm 3 mps 753 mmHg 86%
    08:00 +12°C° 0 mm 3 mps 753 mmHg 82%
    09:00 +14°C° 0 mm 4 mps 753 mmHg 75%
    10:00 +17°C° 0 mm 4 mps 752 mmHg 68%
    11:00 +19°C° 0 mm 4 mps 752 mmHg 61%
    12:00 +20°C° 0 mm 4 mps 752 mmHg 58%
    13:00 +21°C° 0 mm 4 mps 752 mmHg 55%
    14:00 +22°C° 0 mm 4 mps 752 mmHg 53%
    15:00 +21°C° 0 mm 4 mps 751 mmHg 58%
    16:00 +20°C° 0 mm 4 mps 751 mmHg 63%
    17:00 +18°C° 0 mm 3 mps 751 mmHg 68%
    18:00 +17°C° 0 mm 3 mps 751 mmHg 71%
    19:00 +17°C° 0 mm 3 mps 751 mmHg 74%
    20:00 +16°C° 0 mm 3 mps 752 mmHg 77%
    21:00 +14°C° 0 mm 3 mps 752 mmHg 80%
    22:00 +15°C° 0 mm 2 mps 752 mmHg 83%
    23:00 +14°C° 0 mm 2 mps 752 mmHg 85%

    Tomorrow, 15 October, Tuesday

    Time Temperature Precipitation Wind Pressure Humidity
    00:00 +14°C° 0 mm 2 mps 752 mmHg 87%
    01:00 +14°C° 0 mm 2 mps 752 mmHg 88%
    02:00 +13°C° 0 mm 1 mps 752 mmHg 90%
    03:00 +13°C° 0 mm 1 mps 752 mmHg 90%
    04:00 +13°C° 0 mm 1 mps 753 mmHg 91%
    05:00 +13°C° 0 mm 1 mps 753 mmHg 92%
    06:00 +13°C° 0 mm 1 mps 753 mmHg 90%
    07:00 +14°C° 0 mm 1 mps 753 mmHg 89%
    08:00 +14°C° 0 mm 1 mps 754 mmHg 87%
    09:00 +16°C° 0 mm 1 mps 753 mmHg 80%
    10:00 +19°C° 0 mm 1 mps 753 mmHg 73%
    11:00 +19°C° 0 mm 2 mps 753 mmHg 67%
    12:00 +20°C° 0 mm 2 mps 753 mmHg 64%
    13:00 +21°C° 0 mm 2 mps 753 mmHg 61%
    14:00 +23°C° 0 mm 2 mps 753 mmHg 59%
    15:00 +21°C° 0 mm 2 mps 753 mmHg 64%
    16:00 +20°C° 0 mm 2 mps 752 mmHg 69%
    17:00 +18°C° 0 mm 2 mps 752 mmHg 75%
    18:00 +18°C° 0 mm 3 mps 752 mmHg 77%
    19:00 +17°C° 0 mm 3 mps 752 mmHg 80%
    20:00 +16°C° 0 mm 3 mps 752 mmHg 82%
    21:00 +16°C° 0 mm 3 mps 752 mmHg 80%
    22:00 +16°C° 0 mm 3 mps 752 mmHg 79%
    23:00 +14°C° 0 mm 3 mps 752 mmHg 77%

    Day after tomorrow, 16 October, Wednesday

    Time Temperature Precipitation Wind Pressure Humidity
    00:00 +14°C° 0 mm 3 mps 752 mmHg 76%
    01:00 +13°C° 0 mm 3 mps 752 mmHg 75%
    02:00 +13°C° 0 mm 3 mps 752 mmHg 74%
    03:00 +12°C° 0 mm 3 mps 752 mmHg 75%
    04:00 +12°C° 0 mm 3 mps 752 mmHg 75%
    05:00 +12°C° 0 mm 4 mps 751 mmHg 76%
    06:00 +12°C° 0 mm 4 mps 751 mmHg 74%
    07:00 +13°C° 0 mm 4 mps 751 mmHg 72%
    08:00 +13°C° 0 mm 4 mps 751 mmHg 70%
    09:00 +15°C° 0 mm 5 mps 751 mmHg 63%
    10:00 +17°C° 0 mm 5 mps 751 mmHg 57%
    11:00 +19°C° 0 mm 5 mps 751 mmHg 50%
    12:00 +20°C° 0 mm 5 mps 750 mmHg 50%
    13:00 +21°C° 0 mm 5 mps 750 mmHg 49%
    14:00 +21°C° 0 mm 5 mps 750 mmHg 48%
    15:00 +20°C° 0 mm 4 mps 750 mmHg 54%
    16:00 +19°C° 0 mm 3 mps 750 mmHg 59%
    17:00 +18°C° 0 mm 3 mps 749 mmHg 65%
    18:00 +17°C° 0 mm 3 mps 750 mmHg 69%
    19:00 +16°C° 0 mm 3 mps 750 mmHg 72%
    20:00 +14°C° 0 mm 3 mps 750 mmHg 75%
    21:00 +15°C° 0 mm 2 mps 750 mmHg 79%
    22:00 +15°C° 0 mm 2 mps 751 mmHg 82%
    23:00 +14°C° 0 mm 2 mps 751 mmHg 85%

    17 October, Thursday

    Time Temperature Precipitation Wind Pressure Humidity
    00:00 +14°C° 0 mm 2 mps 751 mmHg 87%
    01:00 +14°C° 0 mm 2 mps 751 mmHg 88%
    02:00 +14°C° 0 mm 2 mps 751 mmHg 89%
    03:00 +14°C° 0 mm 1 mps 751 mmHg 89%
    04:00 +14°C° 0 mm 1 mps 751 mmHg 89%
    05:00 +14°C° 0 mm 1 mps 751 mmHg 89%
    06:00 +14°C° 0 mm 1 mps 751 mmHg 87%
    07:00 +14°C° 0 mm 1 mps 751 mmHg 86%
    08:00 +14°C° 0 mm 1 mps 751 mmHg 85%
    09:00 +16°C° 0 mm 2 mps 751 mmHg 76%
    10:00 +17°C° 0 mm 3 mps 751 mmHg 68%
    11:00 +19°C° 0 mm 4 mps 751 mmHg 60%
    12:00 +19°C° 0 mm 4 mps 751 mmHg 54%
    13:00 +19°C° 0 mm 4 mps 751 mmHg 49%
    14:00 +19°C° 0 mm 5 mps 751 mmHg 44%
    15:00 +18°C° 0 mm 4 mps 751 mmHg 50%
    16:00 +17°C° 0 mm 3 mps 751 mmHg 56%
    17:00 +16°C° 0 mm 3 mps 751 mmHg 61%
    18:00 +15°C° 0 mm 2 mps 751 mmHg 66%
    19:00 +14°C° 0 mm 2 mps 751 mmHg 70%
    20:00 +13°C° 0 mm 2 mps 752 mmHg 74%
    21:00 +13°C° 0 mm 2 mps 752 mmHg 77%
    22:00 +12°C° 0 mm 2 mps 752 mmHg 80%
    23:00 +12°C° 0 mm 2 mps 752 mmHg 83%

    18 October, Friday

    Time Temperature Precipitation Wind Pressure Humidity
    00:00 +12°C° 0 mm 2 mps 753 mmHg 85%
    01:00 +10°C° 0 mm 2 mps 753 mmHg 87%
    02:00 +10°C° 0 mm 2 mps 753 mmHg 89%
    03:00 +11°C° 0 mm 1 mps 753 mmHg 91%
    04:00 +11°C° 0 mm 1 mps 753 mmHg 92%
    05:00 +10°C° 0 mm 1 mps 753 mmHg 94%
    06:00 +11°C° 0 mm 1 mps 754 mmHg 92%
    07:00 +11°C° 0 mm 1 mps 754 mmHg 91%
    08:00 +12°C° 0 mm 1 mps 754 mmHg 89%
    09:00 +13°C° 0 mm 1 mps 754 mmHg 82%
    10:00 +15°C° 0 mm 1 mps 754 mmHg 75%
    11:00 +16°C° 0 mm 1 mps 755 mmHg 68%
    12:00 +18°C° 0 mm 1 mps 754 mmHg 66%
    13:00 +19°C° 0 mm 1 mps 754 mmHg 63%
    14:00 +19°C° 0 mm 1 mps 754 mmHg 61%
    15:00 +18°C° 0 mm 1 mps 754 mmHg 66%
    16:00 +15°C° 0 mm 0 mps 754 mmHg 71%
    17:00 +14°C° 0 mm 0 mps 754 mmHg 76%
    18:00 +14°C° 0 mm 1 mps 754 mmHg 79%
    19:00 +13°C° 0 mm 1 mps 754 mmHg 82%
    20:00 +13°C° 0 mm 1 mps 755 mmHg 85%
    21:00 +12°C° 0 mm 1 mps 755 mmHg 86%
    22:00 +12°C° 0 mm 2 mps 755 mmHg 87%
    23:00 +12°C° 0 mm 2 mps 755 mmHg 88%

    19 October, Saturday

    Time Temperature Precipitation Wind Pressure Humidity
    00:00 +12°C° 0 mm 2 mps 755 mmHg 89%
    01:00 +12°C° 0 mm 2 mps 755 mmHg 89%
    02:00 +10°C° 0 mm 2 mps 755 mmHg 90%
    03:00 +10°C° 0 mm 2 mps 755 mmHg 90%
    04:00 +10°C° 0 mm 2 mps 755 mmHg 90%
    05:00 +10°C° 0 mm 2 mps 755 mmHg 90%
    06:00 +10°C° 0 mm 2 mps 756 mmHg 89%
    07:00 +12°C° 0 mm 2 mps 756 mmHg 88%
    08:00 +12°C° 0 mm 2 mps 756 mmHg 88%
    09:00 +13°C° 0 mm 2 mps 756 mmHg 81%
    10:00 +14°C° 0 mm 3 mps 756 mmHg 74%
    11:00 +17°C° 0 mm 3 mps 756 mmHg 67%
    12:00 +17°C° 0 mm 3 mps 756 mmHg 65%
    13:00 +18°C° 0 mm 3 mps 756 mmHg 62%
    14:00 +19°C° 0 mm 3 mps 755 mmHg 59%
    15:00 +18°C° 0 mm 3 mps 755 mmHg 64%
    16:00 +17°C° 0 mm 3 mps 755 mmHg 68%
    17:00 +16°C° 0 mm 3 mps 755 mmHg 73%
    18:00 +14°C° 0 mm 3 mps 755 mmHg 74%
    19:00 +13°C° 0 mm 3 mps 755 mmHg 75%
    20:00 +13°C° 0 mm 4 mps 755 mmHg 76%
    21:00 +12°C° 0 mm 4 mps 755 mmHg 75%
    22:00 +12°C° 0 mm 4 mps 756 mmHg 75%
    23:00 +12°C° 0 mm 4 mps 756 mmHg 75%
    Show more